Location: Harwich
(41.7160°N, 69.9939°W)
Time: 08:19:21
(UTC+01:00)

ISS - Visible Passes

Search period start: 06 December 2022 00:00
Search period end: 16 December 2022 00:00
Orbit: 414 x 420 km, 51.6° (Epoch: 06 December)

Date Brightness Start Highest point End Pass type
(mag) Time Alt. Az. Time Alt. Az. Time Alt. Az.
06 Dec -2.1 00:07:15 10° WNW 00:10:18 33° SW 00:11:20 26° S visible
06 Dec -3.2 23:18:56 10° WNW 23:22:13 58° SW 23:25:30 10° SE visible
08 Dec -0.5 00:09:02 10° WSW 00:10:22 12° SW 00:11:42 10° SSW visible
08 Dec -0.9 23:19:49 10° W 23:22:21 20° SW 23:24:55 10° S visible
